Back to catalog

FENGYUN 1C DEB

LostPO
NORAD 38489·DEBRIS·🇨🇳 China

Launched May 10, 1999 from Taiyuan Satellite Launch Center

Loading…

Next Passes (next 24 hours)

TLE

StaleSource: Space-Track

Epoch: Oct 29, 2025, 10:12 UTC

1 38489U 99025ERY 25302.42540288  .00003626  00000-0  24792-2 0  9995
2 38489  98.2029 170.6194 0209999 172.4826 187.9569 13.90151974613904

Track FENGYUN 1C DEB in real time with AllMySat

Download on the App Store